OPTUS D1

Last updated on Tue Jul 08 2025 00:02:44 GMT+0000 (Coordinated Universal Time)

1 29495U 06043B 25188.45095316 -.00000168 00000+0 00000+0 0 9993 2 29495 2.1436 84.0517 0004010 20.6224 135.3597 1.00271854 68660
UTC large
Height (km)
Speed (km/s)
/
Latitude / Longitude
Inclination (degrees)
Orbital Period (minutes)
Azimuth
Elevation
Range (km)
Doppler Factor

Next 0 passes for location: London (51.5072 / 0.1276)

Sorry there are no passes over London.